User: anonymous   Login
Location: Marne
(34.0056°N, 117.9064°W)
Time: 12:41:28
(UTC+00:00)
Language:

Cosmos 1726 - Orbit

View from above orbital plane
View from above orbital plane
View from above satellite
View from above satellite

Ground track
Ground track

The orbit data is extracted from the following two-line orbital elements,

1 16495U 86006A   20094.81600543 +.00000747 +00000-0 +28631-4 0  9999
2 16495 082.4705 125.3762 0011967 203.3711 156.6984 15.24873023871684
Epoch (UTC): 03 April 2020 19:35:02
Eccentricity: 0.0011967
inclination: 82.4705°
perigee height: 483 km
apogee height: 499 km
right ascension of ascending node: 125.3762°
argument of perigee: 203.3711°
revolutions per day: 15.24873023
mean anomaly at epoch: 156.6984°
orbit number at epoch: 87168

The dashed part of the orbit path shows where the satellite is in the earth's shadow,  

DLR